[ ตารางข้อมูล ] [ Min-Max ] [ วันนี้4 ] [ วันนี้2 ] [ เทียบ3วัน A ] [ เทียบ4วัน B ]   

วันนี้2   [ ◀ ช่วงเก่ากว่า ] [ ช่วงที่ 319 ] [ ช่วงใหม่กว่า ▶ ] [ ล่าสุด ]    [ 3 ชั่วโมง ] [ 6 ชั่วโมง ] [ 12 ชั่วโมง ] [ 24 ชั่วโมง ]   วันนี้2

อุณภูมิตู้ Knockdown4529  ราย 3 ชั่วโมง  ที่วัดได้ ในช่วงวันเวลา 31/03/2026 (00:09) ถึง 31/03/2026 (03:09) 
ความชื้นในตู้ Knockdown4529  ราย 3 ชั่วโมง  ที่วัดได้ ในช่วงวันเวลา 31/03/2026 (00:09) ถึง 31/03/2026 (03:09) 

 
DS18B20SHTC3 
IDDate d/m/Y & Timedata1
สูง
data2
ต่ำ
data3
นอก
temp
pcb
hum
pcb
Time
 7380  31/03/2026 03:07:30  28.7  28.7  26.5  28.5  72.8  03:07 
 7379  31/03/2026 03:02:49  28.8  28.7  26.5  28.5  72.8  03:02 
 7378  31/03/2026 02:58:06  28.8  28.7  26.5  28.6  72.9  02:58 
 7377  31/03/2026 02:53:24  28.8  28.8  26.6  28.6  72.7  02:53 
 7376  31/03/2026 02:48:43  28.8  28.8  26.8  28.6  72.7  02:48 
 7375  31/03/2026 02:44:00  28.8  28.8  26.7  28.6  72.8  02:44 
 7374  31/03/2026 02:39:19  28.8  28.8  27.0  28.6  72.7  02:39 
 7373  31/03/2026 02:34:37  28.8  28.8  27.0  28.6  72.8  02:34 
 7372  31/03/2026 02:29:55  28.9  28.8  27.2  28.7  72.8  02:29 
 7371  31/03/2026 02:25:13  28.9  28.8  27.0  28.6  72.8  02:25 
 7370  31/03/2026 02:20:31  28.9  28.8  27.1  28.6  72.7  02:20 
 7369  31/03/2026 02:15:49  28.9  28.8  27.3  28.5  72.6  02:15 
 7368  31/03/2026 02:11:07  28.9  28.9  27.2  28.7  72.7  02:11 
 7367  31/03/2026 02:06:25  28.9  28.9  27.2  28.7  72.7  02:06 
 7366  31/03/2026 02:01:43  28.9  28.9  27.4  28.9  72.8  02:01 
 7365  31/03/2026 01:57:01  28.9  28.9  27.5  28.8  72.8  01:57 
 7364  31/03/2026 01:52:20  29.0  28.9  27.5  28.7  72.8  01:52 
 7363  31/03/2026 01:47:36  29.0  28.9  27.5  28.8  72.7  01:47 
 7362  31/03/2026 01:42:54  29.0  28.9  27.7  28.9  72.8  01:42 
 7361  31/03/2026 01:38:12  29.0  29.0  27.5  28.9  72.7  01:38 
 7360  31/03/2026 01:33:30  29.0  29.0  27.7  28.7  72.7  01:33 
 7359  31/03/2026 01:28:48  29.1  29.0  27.7  28.9  72.7  01:28 
 7358  31/03/2026 01:24:06  29.1  29.0  27.5  28.9  72.6  01:24 
 7357  31/03/2026 01:19:24  29.1  29.1  27.6  29.0  72.7  01:19 

Data every 5 minute.


ใช้เวลาประมวลผล 0.00178 วินาที